Regional Weather Roundup
Issued by NWS New Orleans/Baton Rouge, LA

Home | Current Version | Previous Version | Text Only | Print | Product List | Glossary On
Versions: 1 2 3 4 5 6 7 8 9 10 11 12 13 14 15 16 17 18 19 20 21 22 23 24 25 26 27 28 29 30 31 32 33 34 35 36 37 38 39 40 41 42 43 44 45 46 47 48 49 50
000
ASUS44 KLIX 220210
RWRLIX
NEW ORLEANS REGIONAL WEATHER ROUNDUP
NATIONAL WEATHER SERVICE NEW ORLEANS LA
800 PM CST SUN DEC 21 2014

NOTE: "FAIR" INDICATES FEW OR NO CLOUDS BELOW 12,000 FEET WITH NO
      SIGNIFICANT WEATHER AND/OR OBSTRUCTIONS TO VISIBILITY.
      SKY/WX - SKY CONDITION AND SIGNIFICANT WEATHER.
      TMP - AIR TEMPERATURE.     DP    - DEWPOINT TEMPERATURE.
      RH  - RELATIVE HUMIDITY.   PRES  - PRESSURE.
      HI  - HEAT INDEX.          WCI   - WIND CHILL INDEX.

*  THESE STATIONS ARE NOT NWS OR FAA STATIONS AND ARE NOT UNDER
   NWS QUALITY CONTROL.

LAZ038-040-048-061>063-065>067-069-220300-
SOUTHEAST LOUISIANA

CITY           SKY/WX    TMP DP  RH WIND       PRES   REMARKS
N.O. AUDUBON     N/A     56  53  90 MISG        N/A
N.O. INTL ARPT CLOUDY    55  51  86 E7        29.98S FOG
N.O. LAKEFRONT CLOUDY    56  52  86 E10       29.98F FOG
N.O. DOWNTOWN* CLOUDY    55  48  76 E8        29.98S
SLIDELL        CLOUDY    53  50  89 CALM      29.97F
BATON ROUGE    CLOUDY    53  50  89 E3        29.97S
BOOTHVILLE     CLOUDY    57  56  96 NE6       29.98S FOG
BELLE CHASSE   CLOUDY    56  53  90 E7        29.97F
BOGALUSA*        N/A     55  50  83 E3        30.00F
GALLIANO*      CLOUDY    58  56  92 MISG      29.98S FOG
NEW ROADS*     CLOUDY    52  50  94 CALM      29.98S
GONZALES*      MOCLDY    53  53 100 CALM      29.97R
HAMMOND*       NOT AVBL
HOUMA*         CLOUDY    53  52  95 NE3       29.97S FOG
PORT FOURCHON* CLOUDY    59  55  88 E8G15     30.00S

$$

MSZ070-080>082-220300-
SOUTHERN MISSISSIPPI

CITY           SKY/WX    TMP DP  RH WIND       PRES   REMARKS
MCCOMB         CLOUDY    54  49  83 NE6       29.99R
GULFPORT       CLOUDY    56  53  90 NE7       29.99F
BILOXI         CLOUDY    55  55 100 E7        29.99F
PASCAGOULA     CLOUDY    56  54  93 E3        30.01F
STENNIS ARPT*  CLOUDY    54  50  87 NE3       29.99F

$$

COASTAL OBSERVATIONS
LAKE AND NEARSHORE STATIONS

STATION/POSITION TIME  TEMP    WIND        PRES    WAVE
                       AIR SEA DIR/SP/G            HT/PER
                 (UTC) (F)     (DEG/KT/KT) (MB)    (FT/S)
PASCAGOULA       0200   57      60/  9/ 11 1015.5
WAVELAND YACHT   0200   56      70/  7/  7 1014.4
GRAND ISLE       0200   58 60   80/  8/ 14 1015.4
SOUTHWEST PASS   0200   61                 1014.9
NEW CANAL        0200   54 56   80/  2/  6 1015.2
SHELL BEACH      0200   56 57   70/ 11/ 12 1014.8

OFFSHORE STATIONS

STATION/POSITION TIME  TEMP    WIND        PRES    WAVE
                       AIR SEA DIR/SP/G            HT/PER
                 (UTC) (F)     (DEG/KT/KT) (MB)    (FT/S)
64 S DAUPHIN ISL 0200   68 74   90/ 12/ 17 1014.3    2/ 6

$$



USA.gov is the U.S. government's official web portal to all federal, state and local government web resources and services.